<?xml version='1.0' encoding='UTF-8'?>
<gpx xmlns="http://www.topografix.com/GPX/1/1" creator="www.balnam.be" version="1.1" xmlns:xsi="http://www.w3.org/2001/XMLSchema-instance" xsi:schemaLocation="http://www.topografix.com/GPX/1/1 http://www.topografix.com/GPX/1/1/gpx.xsd">
<trk>
<name>hhomp3</name>
<cmt>r</cmt>
<desc>Marchipont Chemin n°3 Chemin du Pommier</desc>
<link href="https://chemins.be/marchipont/chemin/3"/><trkseg>
<trkpt lat="50.373165" lon="3.668745"><time>2026-05-02T19:54:46Z</time></trkpt>
<trkpt lat="50.371934" lon="3.666356"><time>2026-05-02T20:04:46Z</time></trkpt>
<trkpt lat="50.368978" lon="3.663180"><time>2026-05-02T20:14:46Z</time></trkpt>
<trkpt lat="50.367887" lon="3.661893"><time>2026-05-02T20:24:46Z</time></trkpt>
<trkpt lat="50.366208" lon="3.660985"><time>2026-05-02T20:34:46Z</time></trkpt>
</trkseg>
</trk>
<trk>
<name>hhomp4</name>
<cmt>r</cmt>
<desc>Marchipont Chemin n°4 </desc>
<link href="https://chemins.be/marchipont/chemin/4"/><trkseg>
<trkpt lat="50.378105" lon="3.668499"><time>2026-05-02T19:54:46Z</time></trkpt>
<trkpt lat="50.378754" lon="3.668864"><time>2026-05-02T20:04:46Z</time></trkpt>
</trkseg></trk>
<trk>
<name>hhomp4</name>
<cmt>v</cmt>
<desc>Marchipont Chemin n°4 </desc>
<link href="https://chemins.be/marchipont/chemin/4"/><trkseg>
<trkpt lat="50.378754" lon="3.668864"><time>2026-05-02T20:04:46Z</time></trkpt>
<trkpt lat="50.382595" lon="3.671026"><time>2026-05-02T20:14:46Z</time></trkpt>
</trkseg>
</trk>
<trk>
<name>hhomp5</name>
<cmt>q</cmt>
<desc>Marchipont Sentier n°5 </desc>
<link href="https://chemins.be/marchipont/sentier/5"/><trkseg>
<trkpt lat="50.378215" lon="3.665606"><time>2026-05-02T19:54:46Z</time></trkpt>
<trkpt lat="50.377855" lon="3.665302"><time>2026-05-02T20:04:46Z</time></trkpt>
<trkpt lat="50.377363" lon="3.664365"><time>2026-05-02T20:14:46Z</time></trkpt>
<trkpt lat="50.371035" lon="3.659061"><time>2026-05-02T20:24:46Z</time></trkpt>
<trkpt lat="50.370723" lon="3.659061"><time>2026-05-02T20:34:46Z</time></trkpt>
<trkpt lat="50.370126" lon="3.658297"><time>2026-05-02T20:44:46Z</time></trkpt>
</trkseg>
</trk>
<trk>
<name>hhomp6</name>
<cmt>r</cmt>
<desc>Marchipont Sentier n°6 </desc>
<link href="https://chemins.be/marchipont/sentier/6"/><trkseg>
<trkpt lat="50.376737" lon="3.668044"><time>2026-05-02T19:54:46Z</time></trkpt>
<trkpt lat="50.376022" lon="3.667380"><time>2026-05-02T20:04:46Z</time></trkpt>
</trkseg></trk>
<trk>
<name>hhomp6</name>
<cmt>q</cmt>
<desc>Marchipont Sentier n°6 </desc>
<link href="https://chemins.be/marchipont/sentier/6"/><trkseg>
<trkpt lat="50.376022" lon="3.667380"><time>2026-05-02T20:04:46Z</time></trkpt>
<trkpt lat="50.375697" lon="3.667033"><time>2026-05-02T20:14:46Z</time></trkpt>
<trkpt lat="50.372243" lon="3.666817"><time>2026-05-02T20:24:46Z</time></trkpt>
</trkseg>
</trk>
<trk>
<name>hhomp8</name>
<cmt>v</cmt>
<desc>Marchipont Chemin n°8 </desc>
<link href="https://chemins.be/marchipont/chemin/8"/><trkseg>
<trkpt lat="50.378162" lon="3.669749"><time>2026-05-02T19:54:46Z</time></trkpt>
<trkpt lat="50.378143" lon="3.670513"><time>2026-05-02T20:04:46Z</time></trkpt>
<trkpt lat="50.377989" lon="3.671856"><time>2026-05-02T20:14:46Z</time></trkpt>
</trkseg>
</trk>
<trk>
<name>hhomp9</name>
<cmt>q</cmt>
<desc>Marchipont Sentier n°9 </desc>
<link href="https://chemins.be/marchipont/sentier/9"/><trkseg>
<trkpt lat="50.382645" lon="3.671066"><time>2026-05-02T19:54:46Z</time></trkpt>
<trkpt lat="50.383235" lon="3.672254"><time>2026-05-02T20:04:46Z</time></trkpt>
</trkseg>
</trk>
</gpx>